This demonstration page uses our WeatherBlox Daily Observations layout. Learn more.

Left ArrowRight Arrow

Hourly Observations for November 3, 2019

Temp ( °F °C ) Dew Point ( °F °C ) Humidity (%) Winds ( mph kmh ) Pressure ( in mb ) Visibility ( mi km ) Precip ( " mm )
12:56 am 00:56 Clear 39 3.9 22 -5.6 50 50 W 3 6 30.09 1019 10 16 0.00 0.00
1:56 am 01:56 Clear 34 1.1 21 -6.1 59 59 WSW 5 7 30.09 1019 10 16 0.00 0.00
1:56 am 01:56 Clear 36 2.2 21 -6.1 55 55 W 5 7 30.07 1018 10 16 0.00 0.00
2:56 am 02:56 Clear 35 1.7 21 -6.1 57 57 W 7 11 30.06 1018 10 16 0.00 0.00
3:56 am 03:56 Clear 27 -2.8 20 -6.7 75 75 Calm 30.05 1018 10 16 0.00 0.00
4:56 am 04:56 Clear 31 -0.6 22 -5.6 69 69 SW 5 7 30.04 1017 10 16 0.00 0.00
5:56 am 05:56 Clear 27 -2.8 21 -6.1 78 78 Calm 30.05 1018 10 16 0.00 0.00
6:56 am 06:56 Clear 26 -3.3 20 -6.7 78 78 S 3 6 30.02 1017 10 16 0.00 0.00
7:56 am 07:56 Sunny 29 -1.7 22 -5.6 75 75 SW 8 13 30.04 1017 10 16 0.00 0.00
8:56 am 08:56 Sunny 36 2.2 24 -4.4 62 62 SW 6 9 30.02 1017 10 16 0.00 0.00
9:56 am 09:56 Partly Cloudy 42 5.6 22 -5.6 45 45 WSW 8 13 30.01 1016 10 16 0.00 0.00
10:56 am 10:56 Sunny 50 10 22 -5.6 33 33 W 8 13 30.00 1016 10 16 0.00 0.00
11:56 am 11:56 Sunny 54 12.2 21 -6.1 28 28 W 8 13 29.96 1015 10 16 0.00 0.00
12:56 pm 12:56 Sunny 58 14.4 23 -5 26 26 SSW 10 17 29.92 1013 10 16 0.00 0.00
1:56 pm 13:56 Sunny 61 16.1 22 -5.6 22 22 SW 14 22 29.88 1012 10 16 0.00 0.00
2:56 pm 14:56 Sunny 62 16.7 21 -6.1 21 21 WSW 14 22 29.86 1011 10 16 0.00 0.00
3:56 pm 15:56 Sunny 62 16.7 22 -5.6 21 21 W 13 20 29.87 1012 10 16 0.00 0.00
4:56 pm 16:56 Sunny 61 16.1 24 -4.4 24 24 W 7 11 29.87 1012 10 16 0.00 0.00
5:56 pm 17:56 Clear 54 12.2 25 -3.9 33 33 WNW 5 7 29.90 1013 10 16 0.00 0.00
6:56 pm 18:56 Clear 52 11.1 27 -2.8 38 38 NW 12 19 29.95 1014 10 16 0.00 0.00
7:56 pm 19:56 Clear 47 8.3 30 -1.1 52 52 NNW 8 13 29.98 1015 10 16 0.00 0.00
8:56 pm 20:56 Clear 44 6.7 31 -0.6 60 60 NW 5 7 29.99 1016 10 16 0.00 0.00
9:56 pm 21:56 Clear 41 5 31 -0.6 67 67 NNW 6 9 30.01 1016 10 16 0.00 0.00
10:56 pm 22:56 Clear 40 4.4 32 0 73 73 NNW 8 13 30.01 1016 10 16 0.00 0.00
11:56 pm 23:56 Clear 39 3.9 33 0.6 79 79 NNW 9 15 30.01 1016 10 16 0.00 0.00

Powered by AerisWeather